Flag for Syria Weather past 2 weeks in Aleppo, Syria

Now
82 °F

Passing clouds.


Feels Like: 86 °F
Forecast: 70 / 94 °F
Wind: 3 mph from West

Location: Iskenderun

Current Time: Jul 24, 2014 at 11:31:44 PM

Latest Report: Jul 24, 2014 at 9:00 PM


Visibility: 2 mi

Pressure: 29.71 "Hg

Humidity: 67%

Dew point: 70 °F

Location of AleppoLocation

Historic Weather in Aleppo — Graph

°F

Aleppo temperature yesterday

Maximum temperature yesterday: 86 °F (at 3:00 PM)
Minimum temperature yesterday: 80 °F (at 6:00 AM)
Average temperature yesterday: 83 °F

Past Weeks' High & Low Weather Summary

 TemperatureHumidityPressure
High88 °F (Jul 10, 3:00 PM)77% (Jul 21, 6:00 AM)29.84 "Hg (Jul 21, 6:00 AM)
Low77 °F (Jul 21, 3:00 AM)56% (Jul 17, 3:00 PM)29.62 "Hg (Jul 20, 6:00 AM)
Average83 °F67%29.73 "Hg
* Reported Jul 9 9:00 PM — Jul 24 9:00 PM, Aleppo, Weather by CustomWeather, © 2014

Note: Actual official high and low records may vary slightly from our data, if they occured in-between our weather recording intervals... More about our weather records

Advertising

Aleppo weather history for previous 24 hours

 ConditionsComfort  
Time TempWeatherWind HumidityBarometerVisibility
9:00 PM
Jul 24
82 °FPassing clouds.3 mph67%29.71 "Hg9 mi
8:00 PM83 °FPassing clouds.5 mph65%29.70 "Hg9 mi
7:00 PM84 °FPassing clouds.7 mph64%29.70 "Hg9 mi
6:00 PM85 °FPassing clouds.7 mph61%29.69 "Hg9 mi
5:00 PM85 °FScattered clouds.10 mph66%29.70 "Hg9 mi
4:00 PM85 °FScattered clouds.13 mph68%29.71 "Hg9 mi
3:00 PM85 °FScattered clouds.12 mph65%29.70 "Hg9 mi
2:00 PM85 °FScattered clouds.13 mph67%29.72 "Hg9 mi
1:00 PM86 °FScattered clouds.10 mph68%29.72 "Hg9 mi
12:00 PM85 °FScattered clouds.8 mph69%29.73 "Hg9 mi
11:00 AM85 °FScattered clouds.8 mph69%29.73 "Hg12 mi
10:00 AM83 °FScattered clouds.6 mph73%29.73 "Hg9 mi
9:00 AM82 °FPartly sunny.6 mph73%29.73 "Hg9 mi
6:00 AM80 °FOvercast.1 mph75%29.73 "Hg9 mi
3:00 AM81 °FPassing clouds.9 mph77%29.75 "Hg9 mi
12:00 AM83 °FPassing clouds.7 mph75%29.77 "Hg9 mi
Weather by CustomWeather, © 2014

See weather overviewHow to use our weather pages